| time (UTC) | temp F | wind direction | speed MPH | gust MPH | rain 1hr in | rain 24hr in | rain mn in | humidity % | barometer mb |
| 20260504033308 | 60 | 157 | 6.0 | 10.0 | 0.00 | 0.00 | 0.00 | 43 | 1012.6 |
| 20260504032804 | 61 | 153 | 9.0 | 11.0 | 0.00 | 0.00 | 0.00 | 42 | 1012.6 |
| 20260504032301 | 58 | 140 | 4.0 | 7.0 | 0.00 | 0.00 | 0.00 | 44 | 1012.3 |
| 20260504031757 | 57 | 151 | 4.0 | 5.0 | 0.00 | 0.00 | 0.00 | 44 | 1012.5 |
| 20260504031255 | 57 | 153 | 3.0 | 3.0 | 0.00 | 0.00 | 0.00 | 44 | 1012.3 |
| 20260504030751 | 58 | 151 | 4.0 | 5.0 | 0.00 | 0.00 | 0.00 | 43 | 1012.2 |
| 20260504030248 | 58 | 146 | 4.0 | 5.0 | 0.00 | 0.00 | 0.00 | 44 | 1012.3 |
| 20260504025745 | 58 | 154 | 3.0 | 4.0 | 0.00 | 0.00 | 0.00 | 44 | 1012.3 |
| 20260504025242 | 58 | 155 | 3.0 | 4.0 | 0.00 | 0.00 | 0.00 | 44 | 1012.2 |
| 20260504024739 | 59 | 156 | 4.0 | 4.0 | 0.00 | 0.00 | 0.00 | 43 | 1012.3 |
| 20260504024235 | 61 | 154 | 5.0 | 6.0 | 0.00 | 0.00 | 0.00 | 40 | 1012.5 |
| 20260504023732 | 62 | 149 | 4.0 | 6.0 | 0.00 | 0.00 | 0.00 | 40 | 1012.5 |
| 20260504023228 | 62 | 164 | 3.0 | 4.0 | 0.00 | 0.00 | 0.00 | 40 | 1012.3 |
| 20260504022724 | 63 | 171 | 3.0 | 4.0 | 0.00 | 0.00 | 0.00 | 39 | 1012.1 |
| 20260504022220 | 64 | 186 | 3.0 | 5.0 | 0.00 | 0.00 | 0.00 | 38 | 1012.3 |
| 20260504021718 | 65 | 188 | 5.0 | 5.0 | 0.00 | 0.00 | 0.00 | 38 | 1012.2 |
| 20260504021215 | 66 | 197 | 5.0 | 7.0 | 0.00 | 0.00 | 0.00 | 37 | 1012.2 |
| 20260504020712 | 67 | 207 | 6.0 | 7.0 | 0.00 | 0.00 | 0.00 | 37 | 1012.2 |
| 20260504020208 | 68 | 196 | 4.0 | 8.0 | 0.00 | 0.00 | 0.00 | 36 | 1012.0 |
| 20260504015705 | 69 | 205 | 7.0 | 10.0 | 0.00 | 0.00 | 0.00 | 35 | 1012.1 |
| 20260504015201 | 70 | 200 | 9.0 | 14.0 | 0.00 | 0.00 | 0.00 | 34 | 1012.2 |
| 20260504014656 | 71 | 206 | 11.0 | 15.0 | 0.00 | 0.00 | 0.00 | 33 | 1012.1 |
| 20260504014154 | 72 | 209 | 12.0 | 19.0 | 0.00 | 0.00 | 0.00 | 32 | 1012.0 |
| 20260504013652 | 71 | 208 | 9.0 | 13.0 | 0.00 | 0.00 | 0.00 | 33 | 1012.0 |
| 20260504013148 | 71 | 198 | 9.0 | 16.0 | 0.00 | 0.00 | 0.00 | 33 | 1011.9 |
| 20260504012645 | 72 | 209 | 13.0 | 18.0 | 0.00 | 0.00 | 0.00 | 32 | 1011.8 |
| 20260504012143 | 73 | 210 | 12.0 | 18.0 | 0.00 | 0.00 | 0.00 | 32 | 1012.0 |
| 20260504011640 | 73 | 206 | 16.0 | 20.0 | 0.00 | 0.00 | 0.00 | 31 | 1012.1 |
| 20260504011136 | 73 | 209 | 10.0 | 18.0 | 0.00 | 0.00 | 0.00 | 31 | 1011.8 |
| 20260504010632 | 74 | 218 | 8.0 | 20.0 | 0.00 | 0.00 | 0.00 | 31 | 1012.0 |
| 20260504010128 | 74 | 206 | 13.0 | 18.0 | 0.00 | 0.00 | 0.00 | 30 | 1012.0 |
| 20260504005625 | 74 | 210 | 7.0 | 17.0 | 0.00 | 0.00 | 0.00 | 31 | 1012.1 |
| 20260504005122 | 74 | 215 | 17.0 | 18.0 | 0.00 | 0.00 | 0.00 | 30 | 1012.1 |
| 20260504004620 | 74 | 203 | 15.0 | 22.0 | 0.00 | 0.00 | 0.00 | 30 | 1012.1 |
| 20260504004117 | 75 | 211 | 18.0 | 21.0 | 0.00 | 0.00 | 0.00 | 29 | 1012.3 |
| 20260504003614 | 75 | 214 | 13.0 | 18.0 | 0.00 | 0.00 | 0.00 | 29 | 1012.0 |
| 20260504003110 | 75 | 214 | 17.0 | 22.0 | 0.00 | 0.00 | 0.00 | 29 | 1012.1 |
| 20260504002607 | 75 | 212 | 17.0 | 22.0 | 0.00 | 0.00 | 0.00 | 29 | 1012.3 |
| 20260504002105 | 76 | 216 | 17.0 | 25.0 | 0.00 | 0.00 | 0.00 | 29 | 1012.5 |
| 20260504001602 | 76 | 229 | 15.0 | 24.0 | 0.00 | 0.00 | 0.00 | 29 | 1012.5 |
| 20260504001058 | 76 | 209 | 17.0 | 21.0 | 0.00 | 0.00 | 0.00 | 29 | 1012.2 |
| 20260504000555 | 76 | 218 | 15.0 | 23.0 | 0.00 | 0.00 | 0.00 | 29 | 1012.7 |
| 20260504000053 | 76 | 197 | 17.0 | 25.0 | 0.00 | 0.00 | 0.00 | 29 | 1012.3 |
| 20260503235551 | 77 | 200 | 17.0 | 24.0 | 0.00 | 0.00 | 0.00 | 28 | 1012.3 |
| 20260503235048 | 77 | 210 | 19.0 | 23.0 | 0.00 | 0.00 | 0.00 | 28 | 1012.2 |
| 20260503234545 | 76 | 220 | 15.0 | 28.0 | 0.00 | 0.00 | 0.00 | 29 | 1012.5 |
| 20260503234043 | 77 | 216 | 19.0 | 27.0 | 0.00 | 0.00 | 0.00 | 28 | 1012.3 |
| 20260503233539 | 78 | 210 | 15.0 | 22.0 | 0.00 | 0.00 | 0.00 | 27 | 1012.2 |
| 20260503233035 | 77 | 211 | 24.0 | 28.0 | 0.00 | 0.00 | 0.00 | 28 | 1012.5 |
| 20260503232533 | 77 | 202 | 14.0 | 20.0 | 0.00 | 0.00 | 0.00 | 28 | 1012.5 |
| 20260503232030 | 77 | 213 | 19.0 | 21.0 | 0.00 | 0.00 | 0.00 | 28 | 1012.3 |
| 20260503231528 | 78 | 221 | 15.0 | 23.0 | 0.00 | 0.00 | 0.00 | 26 | 1012.5 |
| 20260503231024 | 78 | 203 | 15.0 | 27.0 | 0.00 | 0.00 | 0.00 | 26 | 1012.5 |
| 20260503230521 | 78 | 208 | 13.0 | 20.0 | 0.00 | 0.00 | 0.00 | 26 | 1012.2 |
| 20260503230019 | 78 | 206 | 15.0 | 22.0 | 0.00 | 0.00 | 0.00 | 25 | 1012.5 |
| 20260503225515 | 79 | 218 | 29.0 | 36.0 | 0.00 | 0.00 | 0.00 | 25 | 1012.0 |
| 20260503225010 | 79 | 176 | 14.0 | 26.0 | 0.00 | 0.00 | 0.00 | 24 | 1012.6 |
| 20260503224508 | 78 | 221 | 15.0 | 27.0 | 0.00 | 0.00 | 0.00 | 25 | 1012.8 |
| 20260503224006 | 78 | 211 | 16.0 | 25.0 | 0.00 | 0.00 | 0.00 | 25 | 1012.7 |
| 20260503223503 | 78 | 231 | 12.0 | 17.0 | 0.00 | 0.00 | 0.00 | 25 | 1012.8 |
| 20260503222958 | 78 | 228 | 16.0 | 23.0 | 0.00 | 0.00 | 0.00 | 25 | 1012.7 |
| 20260503222457 | 78 | 204 | 16.0 | 18.0 | 0.00 | 0.00 | 0.00 | 24 | 1013.0 |
| 20260503221955 | 78 | 206 | 11.0 | 25.0 | 0.00 | 0.00 | 0.00 | 25 | 1012.9 |
| 20260503221453 | 78 | 208 | 12.0 | 22.0 | 0.00 | 0.00 | 0.00 | 24 | 1013.2 |
| 20260503220949 | 79 | 213 | 15.0 | 19.0 | 0.00 | 0.00 | 0.00 | 24 | 1013.2 |
| 20260503220446 | 78 | 213 | 18.0 | 23.0 | 0.00 | 0.00 | 0.00 | 24 | 1013.1 |
| 20260503215943 | 78 | 206 | 16.0 | 20.0 | 0.00 | 0.00 | 0.00 | 26 | 1013.3 |
| 20260503215440 | 78 | 226 | 17.0 | 26.0 | 0.00 | 0.00 | 0.00 | 25 | 1013.5 |
| 20260503214938 | 77 | 214 | 13.0 | 17.0 | 0.00 | 0.00 | 0.00 | 25 | 1013.6 |
| 20260503214435 | 78 | 215 | 11.0 | 19.0 | 0.00 | 0.00 | 0.00 | 24 | 1013.6 |
| 20260503213932 | 78 | 246 | 9.0 | 20.0 | 0.00 | 0.00 | 0.00 | 24 | 1013.9 |
| 20260503213431 | 78 | 218 | 14.0 | 16.0 | 0.00 | 0.00 | 0.00 | 25 | 1013.8 |
| 20260503212926 | 78 | 240 | 12.0 | 26.0 | 0.00 | 0.00 | 0.00 | 25 | 1013.8 |
| 20260503212424 | 77 | 224 | 14.0 | 23.0 | 0.00 | 0.00 | 0.00 | 25 | 1014.1 |
| 20260503211921 | 76 | 211 | 12.0 | 22.0 | 0.00 | 0.00 | 0.00 | 25 | 1014.1 |
| 20260503211418 | 77 | 223 | 13.0 | 21.0 | 0.00 | 0.00 | 0.00 | 25 | 1014.3 |
| 20260503210913 | 77 | 208 | 18.0 | 20.0 | 0.00 | 0.00 | 0.00 | 24 | 1014.2 |
| 20260503210410 | 77 | 229 | 14.0 | 25.0 | 0.00 | 0.00 | 0.00 | 25 | 1014.3 |
| 20260503205904 | 77 | 206 | 13.0 | 16.0 | 0.00 | 0.00 | 0.00 | 25 | 1014.5 |
| 20260503205402 | 77 | 210 | 15.0 | 18.0 | 0.00 | 0.00 | 0.00 | 25 | 1014.6 |
| 20260503204858 | 77 | 239 | 17.0 | 22.0 | 0.00 | 0.00 | 0.00 | 24 | 1014.6 |
| 20260503204356 | 78 | 225 | 12.0 | 18.0 | 0.00 | 0.00 | 0.00 | 24 | 1014.8 |
| 20260503203853 | 77 | 234 | 12.0 | 16.0 | 0.00 | 0.00 | 0.00 | 24 | 1014.8 |
| 20260503203350 | 77 | 205 | 19.0 | 27.0 | 0.00 | 0.00 | 0.00 | 25 | 1015.0 |
| 20260503202846 | 78 | 207 | 18.0 | 21.0 | 0.00 | 0.00 | 0.00 | 24 | 1015.2 |
| 20260503202345 | 79 | 225 | 16.0 | 18.0 | 0.00 | 0.00 | 0.00 | 24 | 1015.2 |
| 20260503201843 | 77 | 234 | 16.0 | 23.0 | 0.00 | 0.00 | 0.00 | 25 | 1015.3 |
| 20260503201339 | 77 | 221 | 14.0 | 18.0 | 0.00 | 0.00 | 0.00 | 25 | 1015.3 |
| 20260503200837 | 76 | 229 | 10.0 | 18.0 | 0.00 | 0.00 | 0.00 | 25 | 1015.5 |
| 20260503200332 | 77 | 213 | 16.0 | 22.0 | 0.00 | 0.00 | 0.00 | 25 | 1015.5 |
| 20260503195831 | 77 | 231 | 20.0 | 23.0 | 0.00 | 0.00 | 0.00 | 26 | 1015.6 |
| 20260503195327 | 77 | 209 | 20.0 | 23.0 | 0.00 | 0.00 | 0.00 | 24 | 1015.6 |
| 20260503194824 | 76 | 225 | 14.0 | 25.0 | 0.00 | 0.00 | 0.00 | 25 | 1016.1 |
| 20260503194320 | 76 | 206 | 8.0 | 19.0 | 0.00 | 0.00 | 0.00 | 26 | 1016.0 |
| 20260503193816 | 76 | 207 | 14.0 | 26.0 | 0.00 | 0.00 | 0.00 | 25 | 1016.0 |
| 20260503193312 | 78 | 229 | 13.0 | 23.0 | 0.00 | 0.00 | 0.00 | 24 | 1016.1 |
| 20260503192808 | 76 | 199 | 19.0 | 22.0 | 0.00 | 0.00 | 0.00 | 26 | 1016.1 |
| 20260503192305 | 74 | 216 | 14.0 | 25.0 | 0.00 | 0.00 | 0.00 | 28 | 1016.1 |
| 20260503191800 | 75 | 207 | 14.0 | 22.0 | 0.00 | 0.00 | 0.00 | 27 | 1016.5 |
| 20260503191258 | 74 | 232 | 17.0 | 28.0 | 0.00 | 0.00 | 0.00 | 27 | 1016.5 |
| 20260503190754 | 75 | 217 | 13.0 | 25.0 | 0.00 | 0.00 | 0.00 | 27 | 1016.2 |
| 20260503190251 | 74 | 217 | 15.0 | 21.0 | 0.00 | 0.00 | 0.00 | 29 | 1016.5 |
| 20260503185748 | 75 | 225 | 18.0 | 23.0 | 0.00 | 0.00 | 0.00 | 27 | 1016.7 |
| 20260503185244 | 74 | 228 | 17.0 | 23.0 | 0.00 | 0.00 | 0.00 | 27 | 1016.8 |
| 20260503184738 | 75 | 224 | 9.0 | 22.0 | 0.00 | 0.00 | 0.00 | 27 | 1016.7 |
| 20260503184235 | 75 | 208 | 17.0 | 27.0 | 0.00 | 0.00 | 0.00 | 26 | 1016.9 |
| 20260503183731 | 74 | 215 | 21.0 | 28.0 | 0.00 | 0.00 | 0.00 | 28 | 1017.1 |
| 20260503183229 | 74 | 192 | 18.0 | 30.0 | 0.00 | 0.00 | 0.00 | 29 | 1017.0 |
| 20260503182726 | 74 | 229 | 16.0 | 21.0 | 0.00 | 0.00 | 0.00 | 29 | 1017.5 |
| 20260503182225 | 73 | 211 | 18.0 | 26.0 | 0.00 | 0.00 | 0.00 | 30 | 1017.2 |
| 20260503181721 | 74 | 220 | 14.0 | 18.0 | 0.00 | 0.00 | 0.00 | 28 | 1017.6 |
| 20260503181218 | 74 | 224 | 16.0 | 20.0 | 0.00 | 0.00 | 0.00 | 28 | 1017.5 |
| 20260503180715 | 74 | 209 | 17.0 | 23.0 | 0.00 | 0.00 | 0.00 | 28 | 1017.7 |
| 20260503180213 | 72 | 224 | 13.0 | 21.0 | 0.00 | 0.00 | 0.00 | 29 | 1017.7 |
| 20260503175710 | 72 | 218 | 10.0 | 25.0 | 0.00 | 0.00 | 0.00 | 29 | 1017.7 |
| 20260503175208 | 73 | 213 | 15.0 | 21.0 | 0.00 | 0.00 | 0.00 | 29 | 1017.8 |
| 20260503174703 | 72 | 203 | 14.0 | 24.0 | 0.00 | 0.00 | 0.00 | 31 | 1017.9 |
| 20260503174201 | 73 | 223 | 18.0 | 21.0 | 0.00 | 0.00 | 0.00 | 30 | 1018.0 |
| 20260503173656 | 71 | 216 | 16.0 | 21.0 | 0.00 | 0.00 | 0.00 | 32 | 1018.0 |
| 20260503173152 | 71 | 230 | 19.0 | 28.0 | 0.00 | 0.00 | 0.00 | 31 | 1018.1 |
| 20260503172649 | 71 | 229 | 14.0 | 24.0 | 0.00 | 0.00 | 0.00 | 32 | 1018.4 |
| 20260503172147 | 71 | 205 | 16.0 | 23.0 | 0.00 | 0.00 | 0.00 | 30 | 1018.5 |
| 20260503171643 | 71 | 203 | 15.0 | 23.0 | 0.00 | 0.00 | 0.00 | 33 | 1018.7 |
| 20260503171141 | 71 | 223 | 12.0 | 28.0 | 0.00 | 0.00 | 0.00 | 32 | 1018.5 |
| 20260503170637 | 70 | 208 | 11.0 | 21.0 | 0.00 | 0.00 | 0.00 | 33 | 1018.7 |
| 20260503170134 | 71 | 210 | 21.0 | 25.0 | 0.00 | 0.00 | 0.00 | 32 | 1018.9 |
| 20260503150526 | 64 | 229 | 12.0 | 21.0 | 0.00 | 0.00 | 0.00 | 47 | 1019.8 |
| 20260503131419 | 51 | 211 | 6.0 | 9.0 | 0.00 | 0.00 | 0.00 | 69 | 1020.4 |
| 20260503130915 | 51 | 220 | 4.0 | 8.0 | 0.00 | 0.00 | 0.00 | 71 | 1020.1 |
| 20260503130413 | 50 | 216 | 6.0 | 15.0 | 0.00 | 0.00 | 0.00 | 71 | 1020.2 |
| 20260503110812 | 47 | 229 | 2.0 | 7.0 | 0.00 | 0.00 | 0.00 | 76 | 1019.6 |
| 20260503110309 | 46 | 192 | 2.0 | 3.0 | 0.00 | 0.00 | 0.00 | 76 | 1019.6 |
| 20260503100235 | 50 | 224 | 2.0 | 11.0 | 0.00 | 0.00 | 0.00 | 70 | 1020.0 |
| 20260503090154 | 50 | 239 | 6.0 | 9.0 | 0.00 | 0.00 | 0.00 | 63 | 1019.7 |
| 20260503081629 | 51 | 220 | 3.0 | 11.0 | 0.00 | 0.00 | 0.00 | 58 | 1019.9 |
| 20260503081126 | 52 | 211 | 5.0 | 13.0 | 0.00 | 0.00 | 0.00 | 58 | 1019.9 |
| 20260503080622 | 52 | 236 | 5.0 | 14.0 | 0.00 | 0.00 | 0.00 | 57 | 1019.8 |
| 20260503080119 | 52 | 226 | 11.0 | 13.0 | 0.00 | 0.00 | 0.00 | 56 | 1019.8 |
| 20260503072556 | 52 | 223 | 6.0 | 9.0 | 0.00 | 0.00 | 0.00 | 53 | 1020.1 |
| 20260503072054 | 52 | 214 | 4.0 | 11.0 | 0.00 | 0.00 | 0.00 | 52 | 1020.1 |
| 20260503071550 | 51 | 206 | 7.0 | 9.0 | 0.00 | 0.00 | 0.00 | 52 | 1020.2 |
| 20260503071047 | 51 | 191 | 4.0 | 5.0 | 0.00 | 0.00 | 0.00 | 51 | 1020.2 |
| 20260503070543 | 51 | 197 | 4.0 | 6.0 | 0.00 | 0.00 | 0.00 | 51 | 1020.2 |
| 20260503055003 | 50 | 212 | 3.0 | 4.0 | 0.00 | 0.00 | 0.00 | 47 | 1020.1 |
| 20260503054458 | 50 | 184 | 4.0 | 5.0 | 0.00 | 0.00 | 0.00 | 46 | 1020.1 |
| 20260503053956 | 51 | 177 | 3.0 | 3.0 | 0.00 | 0.00 | 0.00 | 45 | 1020.0 |
| 20260503053454 | 51 | 183 | 2.0 | 3.0 | 0.00 | 0.00 | 0.00 | 46 | 1020.2 |
| 20260503052950 | 50 | 177 | 2.0 | 4.0 | 0.00 | 0.00 | 0.00 | 46 | 1020.1 |
| 20260503052448 | 51 | 180 | 3.0 | 4.0 | 0.00 | 0.00 | 0.00 | 45 | 1020.0 |
| 20260503051944 | 52 | 180 | 3.0 | 4.0 | 0.00 | 0.00 | 0.00 | 43 | 1020.1 |
| 20260503051440 | 53 | 192 | 2.0 | 3.0 | 0.00 | 0.00 | 0.00 | 42 | 1020.2 |
| 20260503050938 | 53 | 187 | 3.0 | 4.0 | 0.00 | 0.00 | 0.00 | 43 | 1020.0 |
| 20260503050433 | 53 | 192 | 4.0 | 5.0 | 0.00 | 0.00 | 0.00 | 42 | 1020.1 |
| 20260503045931 | 53 | 193 | 1.0 | 4.0 | 0.00 | 0.00 | 0.00 | 41 | 1020.0 |
| 20260503045429 | 53 | 196 | 3.0 | 3.0 | 0.00 | 0.00 | 0.00 | 41 | 1020.0 |
| 20260503044925 | 53 | 208 | 3.0 | 4.0 | 0.00 | 0.00 | 0.00 | 41 | 1020.0 |
| 20260503044422 | 53 | 205 | 3.0 | 4.0 | 0.00 | 0.00 | 0.00 | 40 | 1020.1 |
| 20260503043920 | 53 | 177 | 1.0 | 2.0 | 0.00 | 0.00 | 0.00 | 41 | 1020.1 |
| 20260503043416 | 53 | 184 | 4.0 | 4.0 | 0.00 | 0.00 | 0.00 | 40 | 1020.0 |
| 20260503042912 | 53 | 186 | 2.0 | 3.0 | 0.00 | 0.00 | 0.00 | 41 | 1019.9 |
| 20260503042409 | 51 | 173 | 1.0 | 4.0 | 0.00 | 0.00 | 0.00 | 41 | 1020.1 |
| 20260503041905 | 49 | 150 | 2.0 | 3.0 | 0.00 | 0.00 | 0.00 | 42 | 1020.0 |
| 20260503041402 | 49 | 159 | 2.0 | 3.0 | 0.00 | 0.00 | 0.00 | 42 | 1020.0 |
| 20260503040900 | 49 | 167 | 2.0 | 3.0 | 0.00 | 0.00 | 0.00 | 42 | 1020.0 |
| 20260503040357 | 47 | 142 | 2.0 | 3.0 | 0.00 | 0.00 | 0.00 | 43 | 1020.1 |
| 20260503035854 | 48 | 146 | 3.0 | 3.0 | 0.00 | 0.00 | 0.00 | 41 | 1020.1 |
| 20260503035351 | 49 | 144 | 3.0 | 3.0 | 0.00 | 0.00 | 0.00 | 41 | 1019.9 |
| 20260503034848 | 48 | 162 | 2.0 | 3.0 | 0.00 | 0.00 | 0.00 | 41 | 1020.1 |
| 20260503034346 | 48 | 153 | 3.0 | 3.0 | 0.00 | 0.00 | 0.00 | 41 | 1020.1 |
| 20260503033843 | 49 | 142 | 2.0 | 3.0 | 0.00 | 0.00 | 0.00 | 40 | 1020.1 |